Location: Stonelick Lake State Park
(39.2170°N, 84.0850°W)
Time: 08:33:15
(UTC-04:00)

Daily predictions for brighter satellites

Satellite Brightness Start Highest point End
(mag) Time Altitude Azimuth Time Altitude Azimuth Time Altitude Azimuth
Meteor 2-10 Rocket 3.8 21:18:46 10° N 21:24:38 84° E 21:30:26 10° S
Cosmos 2034 Rocket 4.1 21:18:40 10° N 21:24:54 89° ENE 21:31:04 10° S
Meteor 2-3 Rocket 4.0 21:21:14 10° SSE 21:26:42 48° E 21:32:08 10° NNE
GPS 2-04 Rocket1 3.0 21:23:12 10° WSW 21:26:47 43° S 21:30:13 10° E
COSMOS 2487 3.0 21:24:31 10° NNW 21:28:01 59° WSW 21:31:30 10° S
Meteor 1-26 Rocket 4.4 21:23:13 10° N 21:28:47 57° ENE 21:34:25 10° SSE
OAO 2 Rocket 4.2 21:24:41 10° W 21:29:20 37° SSW 21:33:54 10° SE
Helios 1B rocket 2.9 21:28:37 10° NNE 21:32:30 39° E 21:36:20 10° S
Cosmos 2082 Rocket 3.3 21:30:01 10° NW 21:35:20 43° WSW 21:40:40 10° S
H-2A R/B 4.0 21:33:50 10° E 21:36:36 14° ENE 21:39:21 10° NNE
In-Cosmos 22 Rocket 4.5 21:31:53 10° SSW 21:37:39 80° W 21:43:32 10° N
OE (NEXTSAT) 4.4 21:35:12 10° WNW 21:38:45 88° NNE 21:42:01 12° ESE
Cosmos 1937 Rocket 3.5 21:33:49 10° SSW 21:38:57 86° WNW 21:44:07 10° NNE
CZ-4B DEB 3.5 21:37:46 10° SE 21:40:19 30° ENE 21:42:56 10° N
Cosmos 2344 4.5 21:34:35 10° SSE 21:40:31 25° ESE 21:46:39 10° NE
Cosmos 2242 Rocket 4.5 21:36:12 10° NNW 21:40:34 52° W 21:44:51 10° S
Lacrosse 4 Rocket 3.9 21:39:18 10° NNE 21:40:54 12° NE 21:42:29 10° ENE
SL-19 R/B 4.4 21:36:35 10° SSE 21:42:16 78° ENE 21:48:22 10° NNW
Cosmos 1408 4.2 21:42:05 12° SE 21:44:19 18° E 21:46:54 10° NE
Cosmos 1833 Rocket 4.1 21:41:21 10° NW 21:46:28 36° WSW 21:51:32 10° S
Cosmos 2150 Rocket 4.3 21:41:39 10° SSW 21:47:02 77° WNW 21:52:22 10° NNE
Cosmos 2298 Rocket 4.5 21:42:05 10° SSW 21:47:20 67° WNW 21:52:38 10° NNE
Meteor 1-29 3.3 21:44:08 10° NNE 21:47:31 43° E 21:50:50 10° S
Cosmos 1315 Rocket 4.2 21:44:04 10° SSW 21:47:54 43° WNW 21:51:48 10° N
Cosmos 1825 3.7 21:45:47 13° SE 21:47:55 19° E 21:50:39 10° NE
Shenzhou-11 Module 2.0 21:49:48 10° WNW 21:52:53 78° SSW 21:55:05 17° ESE
Resurs 01 Rocket 3.5 21:49:58 10° SSW 21:53:52 30° W 21:57:48 10° NW
Molniya-1 2.4 21:58:42 10° SSW 22:00:30 42° SE 22:01:01 29° ENE
Helios 1A 3.0 21:56:20 10° SSE 22:00:31 84° WSW 22:04:44 10° NNW
Cosmos 1892 3.2 21:58:30 10° SSW 22:02:18 61° W 22:06:07 10° N
COSMOS 2455 2.8 21:59:35 10° SSW 22:05:35 82° ESE 22:11:38 10° NNE
ERS-1 Rocket 3.1 22:03:27 15° SSE 22:07:35 58° ENE 22:12:31 10° N
Cosmos 2279 Rocket 4.4 22:03:05 10° N 22:09:05 45° ENE 22:13:33 17° SE
Cosmos 1943 Rocket 2.5 22:05:48 10° S 22:11:03 43° ESE 22:16:16 10° NE
Cosmos 2142 Rocket 4.4 22:08:07 10° N 22:14:15 76° E 22:19:54 12° SSE
Cosmos 2263 4.3 22:08:38 10° S 22:14:17 59° ESE 22:19:56 10° NNE
Aureole 1 4.5 22:11:52 10° SSW 22:14:50 68° WNW 22:18:10 10° NNE
NOAA 11 4.2 22:13:36 15° SSE 22:18:06 74° ENE 22:23:36 10° N
Milstar 3 4.1 22:12:47 10° SW 22:23:07 34° S 22:27:30 20° ESE
USA 215 3.4 22:19:36 19° ESE 22:24:31 68° NE 22:31:03 10° NW
Cosmos 1340 3.5 22:21:24 10° N 22:24:53 34° ENE 22:25:58 28° ESE
Okean 1-7 3.0 22:22:02 10° N 22:26:27 81° E 22:29:16 22° S
Lacrosse 5 rocket 1.2 22:24:39 10° SW 22:28:13 70° NW 22:31:51 10° NE
Cosmos 2369 Rocket 2.4 22:23:07 10° SSW 22:28:45 75° WNW 22:34:28 10° NNE
Cosmos 1346 Rocket 4.4 22:28:16 10° NNW 22:31:50 33° W 22:35:26 10° SSW
SPOT 1/Viking Rocket 4.1 22:31:52 26° SE 22:34:19 43° ENE 22:39:14 10° N
Cosmos 1703 Rocket 4.3 22:30:39 10° NNW 22:34:57 52° W 22:38:36 14° SSW
Cosmos 1606 2.5 22:32:04 10° N 22:35:51 77° E 22:37:21 35° SSE
SL-08 RB Rocket 3.9 22:35:00 29° SE 22:37:09 57° ENE 22:41:44 10° N
DNEPR-1 R/B 3.7 22:31:52 10° SSW 22:37:17 81° ESE 22:41:51 10° NE
Cosmos 468 4.4 22:32:42 10° NNW 22:38:00 88° ENE 22:40:55 27° SSE
ISS -2.2 22:40:17 10° W 22:43:19 36° NNW 22:46:22 10° NE
Cosmos 372 Rocket 3.8 22:41:08 10° SSW 22:46:16 85° ESE 22:51:24 10° NNE
Meteor 1-10 Rocket 4.4 22:40:27 10° N 22:46:26 83° W 22:50:18 23° S
Cosmos 1269 Rocket 4.0 22:41:13 10° NNW 22:46:30 67° ENE 22:48:45 34° SE
Meteor 1-27 Rocket 3.9 22:41:01 10° N 22:46:43 59° ENE 22:49:13 32° SE
Cosmos 1733 Rocket 3.4 22:45:52 39° SE 22:46:44 44° E 22:50:52 10° NNE
Terra 2.9 22:49:48 26° E 22:50:54 29° ENE 22:54:58 10° N
CENTAUR R/B 2.5 22:46:12 10° SW 22:52:09 81° NW 22:58:59 10° NNE
Cosmos 1125 Rocket 3.7 22:46:57 10° SSW 22:52:11 71° WNW 22:57:25 10° NNE
Nimbus 7 Rocket 4.3 22:50:32 10° NNE 22:56:24 66° ESE 22:59:42 27° S
ATLAS 5 CENTAUR R/B 2.6 22:50:33 10° NNW 22:56:34 66° NE 22:59:28 34° SE
Tiangong 2 2.4 22:55:21 10° W 22:57:47 31° SW 22:57:47 31° SW
SPOT 5 3.1 22:58:43 31° S 23:01:21 79° WSW 23:06:43 10° NNW
GPS 2-04 Rocket1 3.5 23:02:47 10° W 23:05:16 33° SW 23:05:16 33° SW
Cosmos 1782 4.1 23:04:26 10° NNW 23:08:05 35° W 23:09:53 23° SW
Cosmos 2084 4.3 23:04:54 10° NW 23:08:25 34° WSW 23:09:06 32° SW
ARGOS 3.6 23:06:21 27° S 23:09:13 57° W 23:14:31 10° NNW
Cosmos 1656 Rocket 3.6 23:10:03 42° SSE 23:11:43 61° ESE 23:17:09 10° NNE
H-2A R/B 2.2 23:13:15 39° S 23:15:21 77° WSW 23:20:44 10° NNW
CARTOSAT-1 3.7 23:19:18 54° E 23:19:28 54° ENE 23:23:42 10° N
Lacrosse 4 Rocket 1.4 23:15:46 10° NNW 23:20:17 88° WSW 23:20:44 72° SSE
Cosmos 1825 4.3 23:20:38 12° SW 23:23:20 24° WNW 23:26:26 10° NNW
Cosmos 1674 Rocket 3.3 23:20:25 10° N 23:24:45 79° E 23:24:54 78° ESE
Cosmos 1862 4.3 23:24:27 31° SW 23:25:47 42° W 23:29:35 10° N
Cosmos 1378 Rocket 4.2 23:22:03 10° N 23:26:03 43° ENE 23:26:03 43° ENE
Cosmos 494 Rocket 4.1 23:23:15 10° N 23:28:24 56° ENE 23:29:03 52° E
Cosmos 1092 Rocket 3.8 23:27:20 45° S 23:29:20 78° E 23:35:28 10° N
ATLAS CENTAUR R/B 3.7 23:33:01 13° NE 23:33:01 13° NE 23:33:27 10° NE
Nadezhda 4 Rocket 4.1 23:27:53 29° SSW 23:31:13 72° W 23:37:24 10° N
H-2A R/B 2.5 23:37:08 46° NE 23:37:08 46° NE 23:40:35 10° N
Cosmos 2227 Rocket 4.1 23:34:02 10° N 23:37:48 18° NE 23:39:30 16° ENE
Cosmos 2219 3.5 23:37:09 10° NNW 23:42:46 52° ENE 23:43:36 48° E
CZ-4B R/B 4.1 23:42:14 10° NNE 23:46:05 41° ENE 23:46:05 41° ENE
Cosmos 1812 4.0 23:43:36 10° N 23:46:07 33° NNE 23:46:07 33° NNE
Cosmos 1943 Rocket 4.1 23:50:17 10° WSW 23:54:55 26° WNW 23:59:34 10° N
